Location: Fontevrault
(47.1823°N, 0.0493°E)
Time: 15:10:57
(UTC+00:00)

Cosmos 1503 Rocket - Pass Details

Date: 16 June 2021
Orbit: 752 x 791 km, 74.0° (Epoch: 04 August)

Event Time Altitude Azimuth Distance (km) Brightness Sun altitude
Rises 23:09:17 0° 338° (NNW) 3,299 8.9 -18.5°
Reaches altitude 10° 23:11:42 10° 339° (NNW) 2,366 7.8 -18.6°
Maximum altitude 23:17:06 85° 69° (ENE) 800 4.0 -18.8°
Enters shadow 23:19:30 34° 155° (SSE) 1,270 4.6 -18.8°
